World > North America > United States > Texas > Palmer  

Palmer, TX Hourly Weather Updates

Feedback E-mail the Weather

Quick Clicks

Palmer, TX Weather Maps

°F °C°F °C
Palmer Weather Map
UTC Time: 4/16/2024, 20:59
Your Time:

Palmer, TX Regional Weather

Expires:202404162100;;858455
ASUS44 KFWD 162015
RWRTX 
NORTH TEXAS HOURLY WEATHER ROUNDUP
NATIONAL WEATHER SERVICE FORT WORTH TX
300 PM CDT TUE APR 16 2024

NOTE: "FAIR" INDICATES FEW OR NO CLOUDS BELOW 12,000 FEET WITH NO
SIGNIFICANT WEATHER AND/OR OBSTRUCTIONS TO VISIBILITY.


TXZ091>094-102>105-117-120-121-131>134-162100-
NORTH CENTRAL TEXAS
  
CITY           SKY/WX    TMP DP  RH WIND       PRES   REMARKS
SHRMAN/DENISON SUNNY     82  48  30 SW14G22   29.79F                  
GAINESVILLE    FAIR      83  39  21 SW14G21   29.80S                  
BOWIE            N/A     82  42  24 W7        29.80F                  
BRIDGEPORT     FAIR      83  38  20 SW10G22   29.81F                  
DECATUR        FAIR      82  37  19 W12G18    29.81S                  
DENTON         FAIR      83  48  29 SW12      29.79F                  
MCKINNEY       FAIR      83  62  49 S12G22    29.78F                  
BONHAM         FAIR      82  66  58 S17       29.79F                  
GREENVILLE     CLOUDY    75  71  88 S17       29.83S                  
ROCKWALL       FAIR      77  67  72 S14       29.82F                  
TERRELL        CLOUDY    74  69  85 S12G23    29.82F                  
WAXAHACHIE     FAIR      77  67  71 S10       29.85F                  
CLEBURNE       SUNNY     82  48  30 S13       29.83F                  
GRANBURY       FAIR      84  44  24 SW13      29.82F                  
$$


SKY/WX - Weather  TMP - Temperature  DP - Dew Point  RH - Humidity
WIND - Wind Direction/Speed PRES - Barometric Pressure VSB - Visibility
WCI - Wind Chill Index E13G22 Wind - East Wind 13 mph/Gusts of 22 mph

Trending Headlines

Trending Entertainment Headlines

Palmer Radar Loop

Use the map search tool if you want to place a location marker on the radar map...

Palmer Quick Facts

National Two Day Weather Forecast


E-mail the Palmer Weather Forecast

Voice your opinion or tell us about page issues...